• In Romania
  • List of Countries
  • For 7 days
  • Water Temperature
  • Satellite Maps
  • Weather Map
  • Weather Widgets
  • user-avatar
    Login

    Hourly Weather Molodenki

    Today, 26 September, Wednesday

    Time Temperature Precipitation Wind Pressure Humidity
    00:00 +6°C° 0 mm 4 mps 744 mmHg 76%
    01:00 +5°C° 0 mm 4 mps 744 mmHg 78%
    02:00 +5°C° 0 mm 4 mps 745 mmHg 80%
    03:00 +5°C° 0 mm 4 mps 745 mmHg 81%
    04:00 +4°C° 0 mm 4 mps 746 mmHg 83%
    05:00 +4°C° 0 mm 4 mps 747 mmHg 85%
    06:00 +3°C° 0 mm 4 mps 747 mmHg 88%
    07:00 +4°C° 0 mm 4 mps 748 mmHg 84%
    08:00 +4°C° 0 mm 4 mps 748 mmHg 80%
    09:00 +5°C° 0 mm 4 mps 749 mmHg 76%
    10:00 +6°C° 0 mm 4 mps 749 mmHg 70%
    11:00 +7°C° 0 mm 4 mps 750 mmHg 64%
    12:00 +8°C° 0 mm 5 mps 750 mmHg 58%
    13:00 +9°C° 0 mm 5 mps 750 mmHg 56%
    14:00 +9°C° 0 mm 5 mps 750 mmHg 54%
    15:00 +10°C° 0 mm 5 mps 750 mmHg 51%
    16:00 +10°C° 0 mm 4 mps 750 mmHg 55%
    17:00 +8°C° 0 mm 4 mps 750 mmHg 59%
    18:00 +8°C° 0 mm 3 mps 749 mmHg 62%
    19:00 +7°C° 0 mm 3 mps 749 mmHg 64%
    20:00 +6°C° 0 mm 4 mps 749 mmHg 65%
    21:00 +5°C° 0 mm 4 mps 749 mmHg 66%
    22:00 +5°C° 0 mm 5 mps 748 mmHg 66%
    23:00 +5°C° 0 mm 5 mps 748 mmHg 66%

    Tomorrow, 27 September, Thursday

    Time Temperature Precipitation Wind Pressure Humidity
    00:00 +5°C° 0 mm 6 mps 747 mmHg 66%
    01:00 +5°C° 0 mm 7 mps 747 mmHg 65%
    02:00 +5°C° 0 mm 7 mps 746 mmHg 63%
    03:00 +5°C° 0 mm 8 mps 745 mmHg 61%
    04:00 +5°C° 0.5 mm 9 mps 744 mmHg 63%
    05:00 +5°C° 0.5 mm 9 mps 743 mmHg 66%
    06:00 +3°C° 0.5 mm 10 mps 742 mmHg 68%
    07:00 +3°C° 0.6 mm 10 mps 741 mmHg 71%
    08:00 +4°C° 0.6 mm 11 mps 740 mmHg 74%
    09:00 +4°C° 0.6 mm 11 mps 740 mmHg 77%
    10:00 +4°C° 0.4 mm 11 mps 739 mmHg 79%
    11:00 +6°C° 0.4 mm 11 mps 739 mmHg 80%
    12:00 +6°C° 0.4 mm 10 mps 739 mmHg 82%
    13:00 +7°C° 0.1 mm 10 mps 739 mmHg 81%
    14:00 +7°C° 0.1 mm 9 mps 739 mmHg 80%
    15:00 +8°C° 0.1 mm 9 mps 739 mmHg 78%
    16:00 +9°C° 0 mm 8 mps 739 mmHg 77%
    17:00 +9°C° 0 mm 7 mps 739 mmHg 76%
    18:00 +8°C° 0 mm 6 mps 740 mmHg 75%
    19:00 +8°C° 0 mm 6 mps 740 mmHg 78%
    20:00 +8°C° 0 mm 5 mps 741 mmHg 81%
    21:00 +7°C° 0 mm 5 mps 741 mmHg 83%
    22:00 +7°C° 0 mm 5 mps 741 mmHg 84%
    23:00 +7°C° 0 mm 5 mps 741 mmHg 84%

    Day after tomorrow, 28 September, Friday

    Time Temperature Precipitation Wind Pressure Humidity
    00:00 +7°C° 0 mm 5 mps 741 mmHg 85%
    01:00 +6°C° 0 mm 5 mps 741 mmHg 86%
    02:00 +6°C° 0 mm 5 mps 741 mmHg 88%
    03:00 +6°C° 0 mm 5 mps 741 mmHg 90%
    04:00 +6°C° 0 mm 5 mps 741 mmHg 89%
    05:00 +5°C° 0 mm 6 mps 740 mmHg 89%
    06:00 +5°C° 0 mm 6 mps 740 mmHg 88%
    07:00 +6°C° 0 mm 8 mps 739 mmHg 85%
    08:00 +7°C° 0 mm 9 mps 739 mmHg 82%
    09:00 +8°C° 0 mm 10 mps 738 mmHg 79%
    10:00 +9°C° 0 mm 10 mps 738 mmHg 79%
    11:00 +11°C° 0 mm 10 mps 738 mmHg 79%
    12:00 +11°C° 0 mm 10 mps 738 mmHg 79%
    13:00 +12°C° 0 mm 10 mps 737 mmHg 79%
    14:00 +12°C° 0 mm 10 mps 737 mmHg 80%
    15:00 +12°C° 0 mm 10 mps 737 mmHg 80%
    16:00 +12°C° 0.3 mm 9 mps 737 mmHg 81%
    17:00 +12°C° 0.3 mm 9 mps 737 mmHg 83%
    18:00 +12°C° 0.3 mm 8 mps 737 mmHg 85%
    19:00 +11°C° 0.3 mm 7 mps 738 mmHg 84%
    20:00 +10°C° 0.3 mm 6 mps 739 mmHg 82%
    21:00 +9°C° 0.3 mm 5 mps 740 mmHg 81%
    22:00 +8°C° 0 mm 4 mps 740 mmHg 82%
    23:00 +7°C° 0 mm 3 mps 741 mmHg 84%

    29 September, Saturday

    Time Temperature Precipitation Wind Pressure Humidity
    00:00 +5°C° 0 mm 3 mps 742 mmHg 85%
    01:00 +6°C° 0 mm 2 mps 743 mmHg 86%
    02:00 +5°C° 0 mm 2 mps 743 mmHg 87%
    03:00 +5°C° 0 mm 2 mps 744 mmHg 87%
    04:00 +4°C° 0 mm 2 mps 744 mmHg 87%
    05:00 +4°C° 0 mm 2 mps 745 mmHg 87%
    06:00 +4°C° 0 mm 2 mps 745 mmHg 87%
    07:00 +5°C° 0 mm 2 mps 745 mmHg 82%
    08:00 +6°C° 0 mm 2 mps 746 mmHg 78%
    09:00 +7°C° 0 mm 2 mps 746 mmHg 73%
    10:00 +8°C° 0 mm 2 mps 746 mmHg 68%
    11:00 +10°C° 0 mm 2 mps 747 mmHg 62%
    12:00 +12°C° 0 mm 2 mps 747 mmHg 57%
    13:00 +12°C° 0 mm 2 mps 747 mmHg 56%
    14:00 +12°C° 0 mm 2 mps 747 mmHg 54%
    15:00 +12°C° 0 mm 2 mps 747 mmHg 53%
    16:00 +12°C° 0 mm 2 mps 747 mmHg 57%
    17:00 +11°C° 0 mm 1 mps 747 mmHg 60%
    18:00 +10°C° 0 mm 1 mps 747 mmHg 64%
    19:00 +10°C° 0 mm 1 mps 748 mmHg 65%
    20:00 +10°C° 0 mm 1 mps 748 mmHg 66%
    21:00 +9°C° 0 mm 1 mps 749 mmHg 67%
    22:00 +8°C° 0 mm 2 mps 749 mmHg 68%
    23:00 +7°C° 0 mm 2 mps 749 mmHg 68%

    30 September, Sunday

    Time Temperature Precipitation Wind Pressure Humidity
    00:00 +7°C° 0 mm 2 mps 749 mmHg 69%
    01:00 +6°C° 0 mm 2 mps 750 mmHg 69%
    02:00 +6°C° 0 mm 2 mps 750 mmHg 69%
    03:00 +5°C° 0 mm 2 mps 750 mmHg 69%
    04:00 +5°C° 0 mm 2 mps 750 mmHg 67%
    05:00 +6°C° 0 mm 1 mps 751 mmHg 66%
    06:00 +6°C° 0 mm 1 mps 751 mmHg 65%
    07:00 +6°C° 0 mm 1 mps 751 mmHg 62%
    08:00 +7°C° 0 mm 1 mps 751 mmHg 59%
    09:00 +8°C° 0 mm 1 mps 752 mmHg 56%
    10:00 +9°C° 0 mm 1 mps 752 mmHg 53%
    11:00 +10°C° 0 mm 1 mps 752 mmHg 50%
    12:00 +12°C° 0 mm 1 mps 752 mmHg 48%
    13:00 +12°C° 0 mm 1 mps 751 mmHg 48%
    14:00 +12°C° 0 mm 2 mps 751 mmHg 47%
    15:00 +13°C° 0 mm 2 mps 751 mmHg 47%
    16:00 +12°C° 0 mm 1 mps 751 mmHg 51%
    17:00 +11°C° 0 mm 1 mps 751 mmHg 56%
    18:00 +10°C° 0 mm 1 mps 751 mmHg 61%
    19:00 +9°C° 0 mm 1 mps 751 mmHg 63%
    20:00 +9°C° 0 mm 1 mps 751 mmHg 65%
    21:00 +8°C° 0 mm 1 mps 751 mmHg 68%
    22:00 +8°C° 0 mm 1 mps 751 mmHg 70%
    23:00 +7°C° 0 mm 2 mps 750 mmHg 72%

    1 October, Monday

    Time Temperature Precipitation Wind Pressure Humidity
    00:00 +6°C° 0 mm 2 mps 750 mmHg 74%
    01:00 +6°C° 0 mm 2 mps 750 mmHg 76%
    02:00 +6°C° 0 mm 2 mps 750 mmHg 78%
    03:00 +6°C° 0 mm 2 mps 750 mmHg 80%
    04:00 +5°C° 0 mm 2 mps 750 mmHg 81%
    05:00 +5°C° 0 mm 2 mps 750 mmHg 82%
    06:00 +5°C° 0 mm 2 mps 750 mmHg 82%
    07:00 +6°C° 0 mm 2 mps 750 mmHg 77%
    08:00 +7°C° 0 mm 2 mps 750 mmHg 73%
    09:00 +8°C° 0 mm 3 mps 750 mmHg 68%
    10:00 +10°C° 0 mm 3 mps 750 mmHg 62%
    11:00 +11°C° 0 mm 4 mps 750 mmHg 57%
    12:00 +12°C° 0 mm 4 mps 750 mmHg 51%
    13:00 +13°C° 0 mm 4 mps 749 mmHg 50%
    14:00 +13°C° 0 mm 4 mps 749 mmHg 49%
    15:00 +13°C° 0 mm 4 mps 749 mmHg 48%
    16:00 +12°C° 0 mm 3 mps 748 mmHg 53%
    17:00 +11°C° 0 mm 3 mps 748 mmHg 58%
    18:00 +10°C° 0 mm 2 mps 748 mmHg 63%
    19:00 +9°C° 0 mm 2 mps 748 mmHg 64%
    20:00 +9°C° 0 mm 2 mps 748 mmHg 66%
    21:00 +9°C° 0 mm 1 mps 748 mmHg 68%
    22:00 +8°C° 0 mm 2 mps 748 mmHg 68%
    23:00 +8°C° 0 mm 2 mps 748 mmHg 69%
    Show more